Location: Favalello
(42.2939°N, 9.2706°E)
Time: 05:30:01
(UTC+00:00)

Aureole 1 Rocket - Pass Details

Date: 06 December 2019
Orbit: 378 x 1382 km, 73.9° (Epoch: 26 January)

Event Time Altitude Azimuth Distance (km) Brightness Sun altitude
Rises 17:19:51 0° 174° (S) 2,310 6.1 -16.0°
Reaches altitude 10° 17:22:06 10° 160° (SSE) 1,408 4.9 -16.4°
Enters shadow 17:23:10 17° 144° (SE) 1,057 4.1 -16.6°
